[[{"header":{"parameterUnit":"m.s-1","parameterCategory":1,"la1":30.2991,"la2":30.254,"lo1":-89.0895,"lo2":-89.0444,"dy":0.0017,"dx":0.0017,"nx":28,"ny":28,"refTime":"2023-10-29T21:00:00:Z","depth":0,"parameterNumber":2,"parameterNumberName":"U-component_of_WINDS"},"data":[0,0,0,0,0,0,0,0,0,0,0,0,0,0,0,0,0,0,0,0,0,0,0,0,0,0,0,0,0,0,0,0,0,0,0,0,0,0,0,0,0,0,0,0,0,0,0,0,0,0,0,0,0,0,0,0,0,0,-2.0774,-2.0774,0,-2.0754,-2.0753,-2.0753,-2.0709,-2.0708,-2.0707,-2.0706,-2.0686,-2.0686,-2.0686,0,0,0,0,0,0,0,0,0,0,0,0,0,-2.0778,-2.0778,-2.0774,-2.0774,-2.0774,-2.0754,-2.0753,-2.0753,-2.0709,-2.0708,-2.0707,-2.0706,-2.0686,-2.0686,-2.0686,0,0,0,0,0,0,0,0,0,0,0,0,0,-2.0769,-2.0778,-2.0774,-2.0749,-2.0747,-2.0754,-2.0753,-2.0753,-2.0709,-2.0708,-2.0707,-2.0706,-2.0686,-2.0686,-2.0686,-2.0716,0,0,-2.0688,-2.0688,0,0,0,0,0,0,0,0,-2.077,-2.0769,-2.0753,-2.0751,-2.0748,-2.0733,-2.0747,-2.0741,-2.071,-2.0724,-2.0706,-2.0705,-2.0702,-2.0701,-2.0701,-2.0715,-2.0714,-2.0688,-2.0688,-2.0688,-2.0688,0,0,0,0,0,0,0,-2.077,-2.0769,-2.0766,-2.0753,-2.075,-2.074,-2.0737,-2.0746,-2.0721,-2.0722,-2.0719,-2.0717,-2.0701,-2.07,-2.07,-2.0714,-2.0688,-2.0688,-2.0688,-2.0689,-2.0754,-2.0755,0,0,0,0,0,0,-2.0774,-2.077,-2.0767,-2.0765,-2.0756,-2.0741,-2.0738,-2.0739,-2.0721,-2.0717,-2.0718,-2.0715,-2.07,-2.0699,-2.0699,-2.0733,-2.0688,-2.0689,-2.0689,-2.0752,-2.0754,-2.0756,0,0,0,0,0,0,-2.0774,-2.0774,-2.0767,-2.0767,-2.0765,-2.0743,-2.0744,-2.0739,-2.0738,-2.0718,-2.0713,-2.0722,-2.0699,-2.0698,-2.0712,-2.0731,-2.0689,-2.0689,-2.0751,-2.0753,-2.0755,-2.08,0,0,0,0,0,0,-2.0775,-2.0775,-2.0785,-2.0768,-2.0766,-2.078,-2.0745,-2.074,-2.0739,-2.0735,-2.072,-2.0716,-2.0698,-2.0712,-2.0713,-2.0731,-2.069,-2.0749,-2.0752,-2.0754,-2.0797,-2.0804,-2.081,0,0,0,0,0,-2.0775,-2.0798,-2.0785,-2.0785,-2.0777,-2.0782,-2.0781,-2.0759,-2.0741,-2.0751,-2.0739,-2.0717,-2.073,-2.0714,-2.0714,-2.0733,-2.0747,-2.0751,-2.0754,-2.0794,-2.0802,-2.0809,0,0,0,0,0,0,-2.0817,-2.0795,-2.0781,-2.0798,-2.0792,-2.0774,-2.0786,-2.0768,-2.0767,-2.0763,-2.0737,-2.0734,-2.0752,-2.0744,-2.0727,-2.0762,-2.0735,-2.0739,-2.0766,-2.0773,-2.078,-2.078,-2.069,0,0,0,0,0,-2.0828,-2.0833,-2.0814,-2.0831,-2.0829,-2.0809,-2.081,-2.0794,-2.0787,-2.0784,-2.0772,-2.0766,-2.0769,-2.0771,-2.0773,-2.0797,-2.0794,-2.081,-2.0817,-2.0822,-2.0825,-2.0839,-2.0846,-2.0767,-2.0767,-2.0767,0,0,-2.0851,-2.084,-2.0844,-2.084,-2.0833,-2.0839,-2.0806,-2.0814,-2.0819,-2.0785,-2.0797,-2.0789,-2.0781,-2.0801,-2.0809,-2.0795,-2.0847,-2.0826,-2.0831,-2.083,-2.0843,-2.0851,-2.0857,-2.0769,-2.0769,-2.0768,0,0,-2.0896,-2.0888,-2.0902,-2.0897,-2.0888,-2.0875,-2.0879,-2.0864,-2.0857,-2.087,-2.0845,-2.0852,-2.0857,-2.0853,-2.0851,-2.09,-2.088,-2.0901,-2.0933,-2.0947,-2.0953,-2.0959,-2.0976,-2.0983,-2.0904,-2.0905,-2.0905,0,-2.0925,-2.0933,-2.0912,-2.0922,-2.0921,-2.0892,-2.0907,-2.0904,-2.0896,-2.0896,-2.0881,-2.0889,-2.0882,-2.0901,-2.0913,-2.0913,-2.0917,-2.0901,-2.0954,-2.0959,-2.0964,-2.098,-2.0987,-2.0907,-2.0907,-2.0907,-2.0906,0,-2.0971,-2.0977,-2.099,-2.0983,-2.0985,-2.0997,-2.0979,-2.0983,-2.0969,-2.0958,-2.0972,-2.0963,-2.0963,-2.0967,-2.0953,-2.0985,-2.0977,-2.0959,-2.0931,-2.0975,-2.099,-2.0996,-2.0911,-2.091,-2.0909,-2.0909,0,0,-2.1037,-2.1022,-2.1026,-2.1024,-2.1014,-2.1019,-2.1032,-2.1032,-2.1036,-2.1033,-2.1043,-2.1051,-2.1035,-2.1033,-2.1019,-2.1032,-2.1072,-2.1012,-2.1011,-2.1023,-2.1108,-2.1121,-2.1128,-2.106,-2.1061,-2.1062,-2.1108,0,-2.1078,-2.1097,-2.1081,-2.1103,-2.111,-2.1085,-2.1096,-2.1092,-2.1084,-2.1089,-2.1079,-2.1085,-2.1063,-2.1062,-2.1074,-2.1064,-2.1088,-2.1061,-2.1069,-2.107,-2.107,-2.1136,-2.1148,-2.1192,-2.1114,-2.1115,-2.1116,0,-2.1128,-2.1128,-2.1152,-2.1143,-2.1145,-2.1155,-2.1155,-2.1161,-2.1157,-2.115,-2.115,-2.1134,-2.1147,-2.1122,-2.1141,-2.1123,-2.1126,-2.1123,-2.1124,-2.1122,-2.1094,-2.1135,-2.1206,-2.1212,-2.1125,-2.1124,-2.1123,0,-2.1174,-2.118,-2.1195,-2.1194,-2.1184,-2.1192,-2.1189,-2.1183,-2.1186,-2.1187,-2.1189,-2.1192,-2.1193,-2.1197,-2.1182,-2.1165,-2.1203,-2.1177,-2.1198,-2.1198,-2.1205,-2.1204,-2.1276,-2.121,-2.121,-2.1209,-2.1209,0,-2.1221,-2.1236,-2.1216,-2.1225,-2.1243,-2.1225,-2.1243,-2.1237,-2.1233,-2.1242,-2.1222,-2.123,-2.1211,-2.1219,-2.1208,-2.1226,-2.1227,-2.1222,-2.1219,-2.1223,-2.1224,-2.1223,-2.1219,-2.1211,-2.1211,-2.121,-2.121,0,-2.1273,-2.126,-2.1275,-2.1266,-2.1264,-2.1277,-2.1269,-2.1278,-2.127,-2.1282,-2.1283,-2.127,-2.1278,-2.1265,-2.1272,-2.1265,-2.1289,-2.1282,-2.129,-2.1288,-2.131,-2.1307,-2.1383,-2.1392,-2.132,-2.1321,-2.1322,0,-2.1303,-2.1314,-2.1307,-2.1311,-2.1309,-2.1316,-2.1319,-2.1303,-2.1307,-2.1306,-2.1315,-2.1322,-2.1326,-2.1341,-2.1333,-2.1338,-2.133,-2.1357,-2.1331,-2.1336,-2.133,-2.1329,-2.1331,-2.1361,-2.1362,-2.1363,-2.1363,0,-2.1357,-2.1351,-2.1356,-2.1359,-2.1363,-2.1365,-2.1366,-2.1371,-2.1355,-2.1361,-2.1369,-2.1373,-2.1381,-2.1388,-2.1392,-2.139,-2.1374,-2.1372,-2.1377,-2.138,-2.1385,-2.1383,-2.1303,-2.1369,-2.1369,-2.1368,-2.1368,-2.1368,-2.1399,-2.1408,-2.1405,-2.1412,-2.1411,-2.1413,-2.1421,-2.1415,-2.1422,-2.1426,-2.1418,-2.1429,-2.1428,-2.1432,-2.1432,-2.1441,-2.143,-2.1437,-2.1439,-2.1441,-2.1444,-2.1385,-2.1442,-2.1442,-2.1442,-2.1442,-2.1442,0,-2.1451,-2.1449,-2.1455,-2.1457,-2.1464,-2.145,-2.1451,-2.1457,-2.1467,-2.1467,-2.1472,-2.1484,-2.1492,-2.1486,-2.1493,-2.1502,-2.1495,-2.1504,-2.1502,-2.1502,-2.1454,-2.1448,-2.1509,-2.1509,-2.1509,-2.1509,-2.1509,-2.1509,-2.1479,-2.1495,-2.149,-2.1506,-2.1504,-2.1515,-2.1516,-2.1519,-2.1519,-2.1532,-2.1539,-2.1536,-2.1534,-2.1542,-2.1549,-2.1547,-2.1551,-2.1562,-2.1558,-2.1512,-2.1505,-2.1499,-2.1494,-2.1563,-2.1563,-2.1606,-2.1606,-2.1606]},{"header":{"parameterUnit":"m.s-1","parameterCategory":1,"la1":30.2991,"la2":30.254,"lo1":-89.0895,"lo2":-89.0444,"dy":0.0017,"dx":0.0017,"nx":28,"ny":28,"refTime":"2023-10-29T21:00:00:Z","depth":0,"parameterNumber":3,"parameterNumberName":"V-component_of_WINDS"},"data":[0,0,0,0,0,0,0,0,0,0,0,0,0,0,0,0,0,0,0,0,0,0,0,0,0,0,0,0,0,0,0,0,0,0,0,0,0,0,0,0,0,0,0,0,0,0,0,0,0,0,0,0,0,0,0,0,0,0,1.3842,1.3842,0,1.3866,1.3866,1.3866,1.391,1.3911,1.3912,1.3912,1.3931,1.393,1.393,0,0,0,0,0,0,0,0,0,0,0,0,0,1.3829,1.3829,1.3842,1.3842,1.3842,1.3866,1.3866,1.3866,1.391,1.3911,1.3912,1.3913,1.3931,1.393,1.393,0,0,0,0,0,0,0,0,0,0,0,0,0,1.3842,1.3829,1.3841,1.3867,1.3869,1.3866,1.3866,1.3867,1.391,1.3911,1.3912,1.3913,1.3931,1.393,1.393,1.3902,0,0,1.3929,1.3928,0,0,0,0,0,0,0,0,1.3841,1.3842,1.3863,1.3865,1.3868,1.3886,1.3868,1.3878,1.3909,1.3894,1.3912,1.3914,1.3914,1.3915,1.3917,1.3903,1.3903,1.3929,1.3928,1.3928,1.3928,0,0,0,0,0,0,0,1.384,1.3841,1.3851,1.3863,1.3866,1.3876,1.3879,1.387,1.3896,1.3895,1.3899,1.3901,1.3916,1.3917,1.3918,1.3904,1.3929,1.3928,1.3928,1.3928,1.387,1.3869,0,0,0,0,0,0,1.3836,1.384,1.385,1.3852,1.3857,1.3875,1.3879,1.3879,1.3897,1.3901,1.39,1.3903,1.3917,1.3918,1.3918,1.3888,1.3928,1.3928,1.3927,1.3871,1.387,1.3869,0,0,0,0,0,0,1.3836,1.3836,1.3849,1.3847,1.3849,1.3874,1.3874,1.3879,1.388,1.3901,1.3905,1.3897,1.3918,1.3919,1.3907,1.389,1.3927,1.3927,1.3873,1.3871,1.3869,1.3827,0,0,0,0,0,0,1.3835,1.3836,1.3826,1.3846,1.3849,1.3838,1.3873,1.3878,1.388,1.3884,1.3899,1.3902,1.392,1.3907,1.3906,1.389,1.3927,1.3874,1.3872,1.387,1.383,1.3823,1.3818,0,0,0,0,0,1.3834,1.3811,1.3825,1.3826,1.3838,1.3837,1.3838,1.3861,1.3878,1.3869,1.3882,1.3902,1.3892,1.3906,1.3905,1.3888,1.3876,1.3873,1.387,1.3832,1.3825,1.3818,0,0,0,0,0,0,1.3785,1.3814,1.383,1.3813,1.3823,1.3844,1.3832,1.3852,1.3854,1.3858,1.3883,1.3886,1.3871,1.3878,1.3893,1.3863,1.3887,1.3884,1.3858,1.3852,1.3846,1.3844,1.3926,0,0,0,0,0,1.3773,1.3771,1.3796,1.3779,1.3783,1.3807,1.3807,1.3824,1.3834,1.3837,1.385,1.3857,1.3856,1.3854,1.3854,1.3831,1.3836,1.382,1.3814,1.3809,1.3806,1.3796,1.379,1.3859,1.3859,1.3859,0,0,1.3746,1.3762,1.3759,1.3769,1.3778,1.3776,1.3809,1.3804,1.3802,1.3836,1.3826,1.3835,1.3845,1.3828,1.3821,1.3834,1.3788,1.3806,1.3802,1.3801,1.3793,1.3786,1.378,1.3857,1.3858,1.3858,0,0,1.3696,1.3708,1.3696,1.3706,1.3721,1.3737,1.3734,1.3754,1.3763,1.3754,1.378,1.3777,1.3774,1.3781,1.3784,1.3741,1.3759,1.374,1.3709,1.37,1.3694,1.369,1.3675,1.367,1.3737,1.3736,1.3736,0,1.3661,1.3659,1.3686,1.3681,1.3685,1.3719,1.3707,1.3714,1.3727,1.3729,1.3743,1.3743,1.3751,1.3738,1.3728,1.3729,1.3726,1.3737,1.3693,1.3689,1.3685,1.3671,1.3666,1.3734,1.3734,1.3735,1.3735,0,1.3615,1.3613,1.3602,1.3617,1.362,1.361,1.3636,1.3636,1.3653,1.3668,1.366,1.3672,1.3676,1.3675,1.369,1.3663,1.3671,1.3689,1.3714,1.3675,1.3663,1.3658,1.3731,1.3731,1.3732,1.3733,0,0,1.3532,1.3566,1.3561,1.357,1.359,1.3589,1.3582,1.3589,1.3588,1.3597,1.3591,1.359,1.3608,1.3612,1.3628,1.362,1.3587,1.364,1.364,1.363,1.356,1.3546,1.354,1.36,1.3599,1.3599,1.3559,0,1.3487,1.3478,1.3505,1.3489,1.3489,1.3523,1.3517,1.3528,1.3543,1.3543,1.3559,1.3558,1.3581,1.3584,1.3578,1.3592,1.3573,1.3596,1.3594,1.3594,1.3591,1.3533,1.3518,1.348,1.3555,1.3554,1.3553,0,1.3432,1.3442,1.3427,1.3451,1.3452,1.3446,1.3456,1.3457,1.3471,1.3482,1.3488,1.3509,1.3503,1.3528,1.3521,1.3536,1.3537,1.3545,1.3544,1.3544,1.3571,1.3532,1.3468,1.3463,1.3546,1.3546,1.3547,0,1.3374,1.3383,1.3376,1.3382,1.341,1.3406,1.3416,1.3432,1.3436,1.3444,1.3447,1.3453,1.3456,1.346,1.3483,1.3499,1.3473,1.3499,1.3482,1.3481,1.3473,1.3474,1.341,1.3475,1.3475,1.3475,1.3475,0,1.3321,1.331,1.3351,1.3347,1.3337,1.3367,1.3356,1.337,1.3384,1.3383,1.3412,1.3409,1.3439,1.344,1.3457,1.3449,1.345,1.3459,1.3463,1.3456,1.3455,1.3457,1.346,1.3473,1.3474,1.3474,1.3474,0,1.3254,1.3281,1.3276,1.3304,1.3311,1.3302,1.3326,1.3323,1.3341,1.3338,1.334,1.3367,1.3369,1.3393,1.34,1.3412,1.3397,1.3406,1.3393,1.3396,1.3377,1.3379,1.3312,1.3305,1.3374,1.3373,1.3373,0,1.3218,1.3211,1.324,1.3243,1.3254,1.3256,1.3261,1.3291,1.3295,1.3313,1.3307,1.3313,1.332,1.3323,1.3342,1.3348,1.3358,1.3334,1.3359,1.3353,1.3358,1.3358,1.3358,1.3328,1.3328,1.3327,1.3326,0,1.3151,1.3166,1.3173,1.3185,1.3191,1.3201,1.3213,1.3213,1.3246,1.3249,1.3254,1.3259,1.3269,1.3274,1.3284,1.3294,1.3316,1.3319,1.3315,1.3307,1.33,1.3305,1.3379,1.332,1.332,1.3321,1.3321,1.3322,1.3099,1.3096,1.3117,1.3124,1.3137,1.3149,1.3148,1.3167,1.3173,1.3184,1.3202,1.3205,1.3221,1.3237,1.3246,1.3248,1.3261,1.3255,1.3254,1.3252,1.3248,1.3301,1.325,1.325,1.3251,1.3251,1.3251,0,1.3035,1.3051,1.3058,1.3076,1.3081,1.3104,1.3119,1.3122,1.3125,1.314,1.3147,1.3153,1.316,1.3181,1.319,1.3187,1.3197,1.3188,1.3189,1.3191,1.3236,1.3239,1.318,1.318,1.318,1.318,1.318,1.318,1.3003,1.2999,1.3016,1.302,1.3036,1.3041,1.3048,1.3058,1.3071,1.3077,1.3084,1.3099,1.3116,1.3127,1.3134,1.314,1.3142,1.313,1.3139,1.3181,1.3187,1.3194,1.3197,1.313,1.313,1.3093,1.3093,1.3093]}]]